�N����,����,�~����,�C��,���x,�C��,����,���ϕ���,�ő�u�ԕ���,�ő厞����,���˗�,�I�_���x,�n�����x,�ő啗���N��,DTYPE
"21/06/03","00:10",0.0,19.0,84.0,1011.4,294.6,1.0,1.6,332.3,0.00,16.3,130.0,"00:08:56",1
"21/06/03","00:20",0.0,18.7,84.7,1011.2,279.9,0.8,1.3,259.9,0.00,16.1,130.0,"00:13:44",1
"21/06/03","00:30",0.0,18.7,85.3,1010.9,277.3,0.8,1.4,319.4,0.00,16.2,130.0,"00:29:12",1
"21/06/03","00:40",0.0,18.4,85.8,1010.9,292.9,0.8,1.6,320.9,0.00,16.0,130.0,"00:30:02",1
"21/06/03","00:50",0.0,18.3,86.3,1011.2,321.1,1.1,1.6,342.9,0.00,16.0,130.0,"00:48:40",1
"21/06/03","01:00",0.0,18.0,86.8,1011.2,311.5,1.1,1.8,324.1,0.00,15.8,130.0,"00:51:52",1
"21/06/03","01:10",0.0,17.7,87.3,1011.2,298.4,1.1,1.4,323.0,0.00,15.6,130.0,"01:00:16",1
"21/06/03","01:20",0.0,17.5,87.7,1011.2,300.6,1.1,1.4,325.0,0.00,15.5,130.0,"01:14:24",1
"21/06/03","01:30",0.0,17.8,88.1,1011.2,290.0,1.2,2.0,312.3,0.00,15.8,130.0,"01:25:52",1
"21/06/03","01:40",0.0,17.6,88.4,1011.4,268.9,0.7,1.0,251.0,0.00,15.7,130.0,"01:38:16",1
"21/06/03","01:50",0.0,17.5,88.6,1010.9,300.6,0.7,1.2,312.9,0.00,15.6,130.0,"01:49:44",1
"21/06/03","02:00",0.0,17.5,88.9,1010.7,294.3,1.1,1.4,315.0,0.00,15.7,130.0,"01:50:02",1
"21/06/03","02:10",0.0,17.5,89.1,1010.9,322.4,1.6,2.1,323.3,0.00,15.7,130.0,"02:04:24",1
"21/06/03","02:20",0.0,17.3,89.2,1010.7,304.9,1.0,1.7,299.9,0.00,15.5,130.0,"02:11:12",1
"21/06/03","02:30",0.0,17.0,89.3,1011.2,302.3,0.8,1.3,322.0,0.00,15.3,130.0,"02:24:24",1
"21/06/03","02:40",0.0,16.7,89.6,1010.7,294.6,0.8,1.2,316.6,0.00,15.0,130.0,"02:39:28",1
"21/06/03","02:50",0.0,16.9,90.0,1011.2,273.9,1.2,2.1,304.8,0.00,15.3,130.0,"02:48:08",1
"21/06/03","03:00",0.0,17.1,90.0,1010.7,285.3,1.1,1.9,311.1,0.00,15.5,130.0,"02:50:24",1
"21/06/03","03:10",0.0,17.2,90.1,1010.9,287.5,1.1,1.8,259.4,0.00,15.6,130.0,"03:04:08",1
"21/06/03","03:20",0.0,17.1,90.1,1010.9,274.9,1.1,1.4,285.9,0.00,15.5,130.0,"03:15:12",1
"21/06/03","03:30",0.0,17.1,90.2,1010.9,288.6,1.3,2.0,281.5,0.00,15.5,130.0,"03:26:00",1
"21/06/03","03:40",0.0,17.0,90.3,1011.2,285.8,1.1,1.9,308.3,0.00,15.4,130.0,"03:38:00",1
"21/06/03","03:50",0.0,17.0,90.3,1011.2,286.5,1.0,1.7,282.2,0.00,15.4,130.0,"03:49:04",1
"21/06/03","04:00",0.0,16.9,90.4,1010.9,297.5,1.1,1.9,295.7,0.00,15.4,130.0,"03:54:00",1
"21/06/03","04:10",0.0,16.9,90.4,1010.7,278.1,1.0,1.4,281.8,0.00,15.4,130.0,"04:00:40",1
"21/06/03","04:20",0.0,16.8,90.4,1010.7,325.2,1.0,1.8,331.9,0.00,15.3,130.0,"04:16:48",1
"21/06/03","04:30",0.0,16.6,90.5,1010.7,307.3,1.1,1.4,303.6,0.00,15.1,130.0,"04:24:56",1
"21/06/03","04:40",0.0,16.6,90.7,1010.9,332.6,1.2,2.0,342.3,0.00,15.1,130.0,"04:36:32",1
"21/06/03","04:50",0.0,16.4,90.8,1011.2,309.7,1.1,1.7,332.1,0.00,14.9,130.0,"04:40:32",1
"21/06/03","05:00",0.0,16.1,90.8,1010.9,299.0,0.7,1.2,324.5,0.00,14.6,130.0,"04:58:40",1
"21/06/03","05:10",0.0,16.0,91.1,1011.2,294.0,0.7,1.7,320.0,0.00,14.6,130.0,"05:02:56",1
"21/06/03","05:20",0.0,16.1,91.3,1011.4,281.0,1.0,1.3,300.6,0.00,14.7,130.0,"05:14:00",1
"21/06/03","05:30",0.0,16.5,91.5,1010.4,286.4,1.1,2.1,321.8,0.00,15.2,130.0,"05:24:00",1
"21/06/03","05:40",0.0,16.7,91.5,1010.7,291.5,1.1,1.6,267.8,0.00,15.3,130.0,"05:36:40",1
"21/06/03","05:50",0.0,17.0,91.7,1011.2,299.8,1.2,1.8,307.1,0.00,15.7,130.0,"05:44:32",1
"21/06/03","06:00",0.0,17.3,91.7,1010.9,308.0,1.1,1.3,307.3,0.01,16.0,130.0,"05:51:52",1
"21/06/03","06:10",0.0,17.6,91.6,1010.7,287.2,0.7,1.7,312.5,0.01,16.3,130.0,"06:08:40",1
"21/06/03","06:20",0.0,18.0,91.7,1010.9,299.5,0.6,1.1,316.4,0.02,16.7,130.0,"06:13:12",1
"21/06/03","06:30",0.0,18.9,91.7,1010.9,299.8,0.6,0.9,309.5,0.04,17.6,130.0,"06:20:08",1
"21/06/03","06:40",0.0,20.0,91.3,1010.9,287.5,0.3,0.9,275.1,0.07,18.6,130.0,"06:30:32",1
"21/06/03","06:50",0.0,20.2,90.0,1011.2,91.0,1.0,2.0,143.7,0.10,18.5,130.0,"06:48:56",1
"21/06/03","07:00",0.0,20.9,87.8,1011.4,103.2,0.7,2.5,83.2,0.11,18.8,130.0,"06:59:20",1
"21/06/03","07:10",0.0,21.7,85.0,1011.2,66.6,0.7,2.0,85.3,0.15,19.1,130.0,"07:02:40",1
"21/06/03","07:20",0.0,22.2,81.0,1011.2,125.6,0.8,2.9,118.6,0.16,18.8,130.0,"07:15:20",1
"21/06/03","07:30",0.0,22.5,77.7,1010.7,118.6,0.8,2.1,159.6,0.16,18.5,130.0,"07:25:44",1
"21/06/03","07:40",0.0,22.8,74.9,1010.4,118.3,1.1,2.6,95.8,0.18,18.2,130.0,"07:30:48",1
"21/06/03","07:50",0.0,22.8,74.1,1010.4,120.2,1.2,3.6,120.1,0.19,18.0,130.0,"07:44:56",1
"21/06/03","08:00",0.0,23.0,72.9,1010.0,128.2,1.6,4.1,167.1,0.25,17.9,130.0,"07:55:28",1
"21/06/03","08:10",0.0,22.9,71.9,1009.5,129.0,1.5,2.9,148.1,0.18,17.6,130.0,"08:07:52",1
"21/06/03","08:20",0.0,23.0,71.8,1009.5,150.0,2.2,4.7,175.0,0.24,17.7,130.0,"08:15:28",1
"21/06/03","08:30",0.0,23.4,70.4,1009.0,117.8,1.5,4.2,111.8,0.22,17.8,130.0,"08:28:24",1
"21/06/03","08:40",0.0,23.5,69.3,1008.8,119.6,2.2,5.5,129.6,0.25,17.6,130.0,"08:37:52",1
"21/06/03","08:50",0.0,23.7,69.1,1008.6,141.7,1.7,4.4,179.2,0.24,17.7,130.0,"08:44:16",1
"21/06/03","09:00",0.0,23.9,68.2,1009.0,103.5,1.3,3.3,126.0,0.27,17.7,130.0,"08:52:56",1
"21/06/03","09:10",0.0,23.7,67.8,1008.8,87.3,1.0,2.5,134.8,0.15,17.4,130.0,"09:05:04",1
"21/06/03","09:20",0.0,24.5,67.7,1008.8,108.7,1.0,2.6,103.2,0.35,18.2,130.0,"09:19:04",1
"21/06/03","09:30",0.0,25.2,64.4,1008.8,124.1,1.8,4.1,150.0,0.42,18.0,130.0,"09:25:52",1
"21/06/03","09:40",0.0,24.9,65.4,1008.6,127.8,1.3,3.1,161.5,0.22,18.0,130.0,"09:35:44",1
"21/06/03","09:50",0.0,24.5,64.1,1008.3,102.1,1.5,4.0,106.4,0.22,17.3,130.0,"09:49:44",1
"21/06/03","10:00",0.0,25.2,62.9,1008.1,110.1,1.6,3.4,102.9,0.35,17.7,130.0,"09:59:04",1
"21/06/03","10:10",0.0,25.2,60.8,1007.8,123.9,1.8,3.9,113.2,0.32,17.1,130.0,"10:02:40",1
"21/06/03","10:20",0.0,25.1,61.4,1007.8,118.0,2.1,4.9,187.2,0.24,17.2,130.0,"10:11:04",1
"21/06/03","10:30",0.0,25.4,58.8,1007.6,135.6,1.6,3.9,59.5,0.28,16.8,130.0,"10:29:12",1
"21/06/03","10:40",0.0,26.3,58.0,1007.6,122.6,2.2,5.1,166.3,0.42,17.4,130.0,"10:32:56",1
"21/06/03","10:50",0.0,25.8,56.5,1007.4,129.3,2.6,5.1,134.5,0.25,16.5,130.0,"10:42:24",1
"21/06/03","11:00",0.0,25.8,55.8,1007.1,138.5,2.7,6.3,169.7,0.30,16.3,130.0,"10:56:24",1
"21/06/03","11:10",0.0,26.0,55.5,1006.9,135.8,2.7,5.6,123.2,0.30,16.4,130.0,"11:06:08",1
"21/06/03","11:20",0.0,26.3,56.9,1006.9,137.1,2.2,4.9,110.2,0.26,17.1,130.0,"11:17:36",1
"21/06/03","11:30",0.0,26.4,55.9,1007.1,141.5,2.2,4.5,137.6,0.29,16.9,130.0,"11:20:02",1
"21/06/03","11:40",0.0,26.2,54.9,1006.7,155.8,2.8,6.4,134.7,0.24,16.5,130.0,"11:33:36",1
"21/06/03","11:50",0.0,26.0,56.0,1006.7,137.9,2.3,7.4,129.9,0.20,16.6,130.0,"11:48:08",1
"21/06/03","12:00",0.0,25.8,54.7,1006.2,147.4,3.2,6.6,159.7,0.24,16.0,130.0,"11:53:28",1
"21/06/03","12:10",0.0,25.9,55.7,1006.4,154.2,3.0,6.2,156.8,0.20,16.4,130.0,"12:08:00",1
"21/06/03","12:20",0.0,25.9,56.8,1006.2,137.0,2.0,4.9,153.9,0.14,16.7,130.0,"12:12:32",1
"21/06/03","12:30",0.0,26.0,56.6,1006.2,128.7,2.1,5.2,127.9,0.19,16.8,130.0,"12:29:44",1
"21/06/03","12:40",0.0,26.4,55.5,1005.7,131.3,2.5,5.5,138.8,0.27,16.8,130.0,"12:33:36",1
"21/06/03","12:50",0.0,26.2,55.3,1006.2,132.5,2.6,5.2,145.8,0.17,16.6,130.0,"12:45:44",1
"21/06/03","13:00",0.0,26.2,55.5,1006.2,149.1,2.0,3.7,158.2,0.14,16.6,130.0,"12:53:12",1
"21/06/03","13:10",0.0,25.9,54.6,1005.7,143.9,3.5,6.6,120.7,0.14,16.1,130.0,"13:08:00",1
"21/06/03","13:20",0.0,26.4,54.7,1005.5,151.4,2.5,6.4,130.9,0.16,16.6,130.0,"13:10:16",1
"21/06/03","13:30",0.0,26.2,54.8,1005.5,141.9,2.5,5.8,145.8,0.15,16.4,130.0,"13:24:56",1
"21/06/03","13:40",0.0,25.9,55.9,1005.5,128.5,2.0,4.2,120.2,0.08,16.5,130.0,"13:33:20",1
"21/06/03","13:50",0.0,25.6,54.7,1005.7,138.8,2.7,5.4,137.5,0.06,15.9,130.0,"13:47:04",1
"21/06/03","14:00",0.0,25.6,54.3,1005.5,154.5,2.1,3.9,123.7,0.05,15.7,130.0,"13:56:16",1
"21/06/03","14:10",0.0,25.6,54.0,1005.7,152.9,2.3,4.1,163.2,0.05,15.6,130.0,"14:00:16",1
"21/06/03","14:20",0.0,25.5,55.6,1005.7,143.3,2.7,7.4,121.9,0.06,16.0,130.0,"14:11:20",1
"21/06/03","14:30",0.0,25.3,55.7,1006.0,139.3,2.2,6.5,159.2,0.05,15.9,130.0,"14:22:32",1
"21/06/03","14:40",0.0,25.0,57.2,1006.0,137.2,2.6,6.5,136.1,0.04,16.0,130.0,"14:33:36",1
"21/06/03","14:50",0.0,24.9,58.0,1005.2,132.5,2.2,4.2,130.1,0.05,16.1,130.0,"14:46:40",1
"21/06/03","15:00",0.0,24.7,59.2,1005.2,141.9,2.3,5.1,122.9,0.03,16.2,130.0,"14:50:48",1
"21/06/03","15:10",0.0,24.4,60.9,1005.5,134.0,2.1,6.5,127.4,0.03,16.4,130.0,"15:02:40",1
"21/06/03","15:20",0.0,24.3,61.7,1005.2,139.3,2.6,5.9,139.6,0.04,16.5,130.0,"15:15:04",1
"21/06/03","15:30",0.0,24.1,61.5,1005.2,147.6,2.7,5.7,196.1,0.05,16.3,130.0,"15:28:48",1
"21/06/03","15:40",0.0,24.1,62.3,1005.2,147.4,2.5,4.5,140.6,0.05,16.5,130.0,"15:30:32",1
"21/06/03","15:50",0.0,23.8,63.3,1005.5,137.1,1.8,4.9,125.3,0.01,16.5,130.0,"15:48:56",1
"21/06/03","16:00",0.0,23.4,64.1,1005.5,127.6,2.2,4.5,131.6,0.01,16.3,130.0,"15:58:24",1
"21/06/03","16:10",0.0,23.3,64.6,1005.0,141.8,2.7,5.0,141.0,0.00,16.3,130.0,"16:03:44",1
"21/06/03","16:20",0.0,23.2,65.0,1005.0,126.6,1.8,5.0,127.1,0.02,16.3,130.0,"16:13:52",1
"21/06/03","16:30",0.0,23.3,65.3,1005.0,134.2,1.8,8.5,137.2,0.06,16.5,130.0,"16:29:20",1
"21/06/03","16:40",0.0,23.4,66.2,1004.5,143.6,2.3,4.7,158.3,0.10,16.8,130.0,"16:35:12",1
"21/06/03","16:50",0.0,23.0,67.5,1004.3,149.6,2.6,5.1,144.1,0.09,16.7,130.0,"16:48:48",1
"21/06/03","17:00",0.0,23.2,67.2,1004.3,150.1,2.5,5.1,129.6,0.11,16.8,130.0,"16:57:36",1
"21/06/03","17:10",0.0,23.1,67.5,1004.3,144.0,2.6,6.2,120.1,0.06,16.8,130.0,"17:06:00",1
"21/06/03","17:20",0.0,22.9,67.9,1004.8,142.2,2.3,4.5,116.4,0.03,16.7,130.0,"17:14:40",1
"21/06/03","17:30",0.0,22.7,68.6,1004.3,145.8,3.0,5.7,133.8,0.00,16.7,130.0,"17:23:44",1
"21/06/03","17:40",0.0,22.3,70.5,1004.3,152.5,2.8,9.1,137.3,0.00,16.7,130.0,"17:30:32",1
"21/06/03","17:50",0.0,21.9,73.7,1004.3,154.5,1.5,3.1,155.0,0.00,17.0,130.0,"17:49:52",1
"21/06/03","18:00",0.0,21.8,75.8,1004.3,146.5,1.8,4.2,161.3,0.02,17.4,130.0,"17:55:28",1
"21/06/03","18:10",0.0,21.8,76.1,1004.8,158.8,1.8,3.7,146.0,0.04,17.4,130.0,"18:02:56",1
"21/06/03","18:20",0.0,21.8,75.5,1004.5,162.3,2.1,4.4,156.0,0.02,17.3,130.0,"18:19:36",1
"21/06/03","18:30",0.0,21.7,75.4,1004.5,152.0,2.1,3.6,140.3,0.00,17.2,130.0,"18:20:40",1
"21/06/03","18:40",0.0,21.5,75.5,1004.5,142.5,2.0,4.9,127.8,0.00,17.0,130.0,"18:36:24",1
"21/06/03","18:50",0.0,21.5,75.3,1004.1,141.5,2.0,4.1,127.8,0.00,17.0,130.0,"18:41:28",1
"21/06/03","19:00",0.0,21.4,75.5,1004.3,135.0,1.5,4.1,133.3,0.00,16.9,130.0,"18:54:56",1
"21/06/03","19:10",0.0,21.3,76.1,1004.5,158.5,1.3,2.7,52.3,0.00,17.0,130.0,"19:00:40",1
"21/06/03","19:20",0.0,21.1,76.6,1004.3,184.0,1.1,2.9,217.0,0.00,16.9,130.0,"19:18:16",1
"21/06/03","19:30",0.2,20.8,77.5,1004.3,166.3,1.0,2.6,165.2,0.00,16.8,130.0,"19:28:56",1
"21/06/03","19:40",0.0,20.8,78.4,1004.8,152.9,1.2,2.9,188.1,0.00,16.9,130.0,"19:30:02",1
"21/06/03","19:50",0.0,20.7,78.9,1004.8,148.1,1.3,2.9,175.0,0.00,16.9,130.0,"19:42:32",1
"21/06/03","20:00",0.0,20.8,79.4,1004.5,144.3,0.8,2.6,138.6,0.00,17.1,130.0,"19:56:16",1
"21/06/03","20:10",0.0,20.7,79.7,1004.3,165.1,1.0,2.2,192.3,0.00,17.1,130.0,"20:04:08",1
"21/06/03","20:20",0.0,20.7,79.8,1005.0,138.9,1.3,3.7,157.4,0.00,17.1,130.0,"20:10:02",1
"21/06/03","20:30",0.0,20.8,79.7,1004.8,146.2,1.5,3.6,136.8,0.00,17.2,130.0,"20:23:12",1
"21/06/03","20:40",0.0,21.0,79.5,1004.8,146.9,1.7,4.0,129.3,0.00,17.4,130.0,"20:31:44",1
"21/06/03","20:50",0.0,21.0,79.4,1004.8,146.8,1.0,3.1,143.7,0.00,17.3,130.0,"20:40:08",1
"21/06/03","21:00",0.0,21.2,79.2,1004.5,137.8,1.5,4.5,138.4,0.00,17.5,130.0,"20:50:48",1
"21/06/03","21:10",0.0,21.4,78.8,1004.8,130.1,1.8,4.4,139.5,0.00,17.6,130.0,"21:08:16",1
"21/06/03","21:20",0.0,21.4,78.5,1004.1,138.6,1.5,3.1,121.5,0.00,17.5,130.0,"21:14:48",1
"21/06/03","21:30",0.0,21.5,78.2,1004.1,129.7,1.6,5.0,115.7,0.00,17.6,130.0,"21:25:12",1
"21/06/03","21:40",0.0,21.4,78.4,1004.1,97.4,1.0,2.9,112.3,0.00,17.5,130.0,"21:31:36",1
"21/06/03","21:50",0.0,21.3,78.7,1003.8,85.2,0.6,1.4,88.7,0.00,17.5,130.0,"21:40:32",1
"21/06/03","22:00",0.0,21.4,79.0,1003.4,113.3,0.8,2.7,85.6,0.00,17.6,130.0,"21:58:00",1
"21/06/03","22:10",0.0,21.5,79.0,1003.6,63.0,0.8,2.2,31.8,0.00,17.7,130.0,"22:03:36",1
"21/06/03","22:20",0.0,21.5,78.8,1003.8,67.9,0.8,1.8,67.1,0.00,17.7,130.0,"22:11:28",1
"21/06/03","22:30",0.0,21.4,79.1,1003.4,79.6,0.7,3.1,118.2,0.00,17.7,130.0,"22:23:04",1
"21/06/03","22:40",0.0,21.4,79.5,1003.1,62.9,0.8,2.0,83.4,0.00,17.7,130.0,"22:37:44",1
"21/06/03","22:50",0.0,21.4,79.9,1002.9,49.8,0.6,1.6,118.1,0.00,17.8,130.0,"22:42:40",1
"21/06/03","23:00",0.0,21.3,80.1,1002.4,32.5,0.5,1.4,62.3,0.00,17.8,130.0,"22:54:24",1
"21/06/03","23:10",0.0,21.4,80.4,1002.2,17.9,0.6,2.2,25.5,0.00,17.9,130.0,"23:08:40",1
"21/06/03","23:20",0.0,21.5,80.4,1001.9,7.6,0.5,1.1,60.7,0.00,18.0,130.0,"23:11:04",1
"21/06/03","23:30",0.0,21.5,80.5,1002.2,7.6,0.5,1.4,97.5,0.00,18.0,130.0,"23:27:44",1
"21/06/03","23:40",0.0,21.7,80.5,1001.7,138.4,1.1,2.5,125.3,0.00,18.2,130.0,"23:34:32",1
"21/06/03","23:50",0.0,21.9,80.1,1001.9,119.8,0.8,2.1,131.3,0.00,18.4,130.0,"23:40:40",1
"21/06/03","24:00",0.0,22.0,80.0,1001.5,144.0,0.8,2.2,170.7,0.00,18.4,130.0,"23:50:56",1
